SCP
0 0 0 0 0 0 0 0 0 0 0 0 0 0 0 0 0 0 0 0 0 0 0 0 0 0 0 0 0 0 0 0 0 0 0 0 0 0 0 0 0 0 0 0 0 0 0 0 0 0 0 0 0 0
0 0 0 0 0 0 0 0 0 0 0 0 0 0 0 0 0 0 0 0 0 0 0 0 0 0 0 0 0 0 0 0 0 0 0 0 0 0 0 0 0 0 0 0 0 0 0 0 0 0 0 0 0 0
0 0 0 0 0 0 0 0 0 0 0 0 0 0 0 0 0 0 0 0 0 0 0 0 0 0 0 0 0 0 0 0 0 0 0 0 0 0 0 0 0 0 0 0 0 0 0 0 0 0 0 0 0 0
0 0 0 0 0 0 0 0 0 0 0 0 0 0 0 0 0 0 0 0 0 0 0 0 0 0 0 0 0 0 0 0 0 0 0 0 0 0 0 0 0 0 0 0 0 0 0 0 0 0 0 0 0 0
0 0 0 0 0 0 0 0 0 0 0 0 0 0 0 0 0 0 0 0 0 0 0 0 0 0 0 0 0 0 0 0 0 0 0 0 0 0 0 -0 -0 0 0 0 0 0 0 0 0 0 -0 0 -0 -0
0 0 0 0 0 0 0 0 0 0 0 0 0 0 0 0 0 0 0 0 0 0 0 0 0 0 0 0 0 0 0 0 0 0 0 0 0 0 0 0 0 0 0 0 0 0 0 -0 0 -0 -0 -0 -0 0
0 0 0 0 0 0 0 0 0 0 0 0 0 0 0 0 0 0 0 0 0 0 0 0 0 0 0 0 0 0 0 0 0 -0 -0 0 0 0 0 -0 -0 0 -0 0 -0 -0 -0 -0 -0 -0 -0 0 0 -0
0 0 0 0 0 0 0 0 0 0 0 0 0 0 0 0 0 0 0 0 0 0 0 0 0 0 0 0 0 0 0 0 0 0 0 0 -0 -0 -0 -0 0 0 0 0 0 -0 -0 -0 -0 -0 -0 0 0 -0
-0 0 0 0 0 0 0 0 0 0 0 0 0 0 0 0 0 0 0 0 0 0 0 0 0 0 0 0 0 0 0 0 0 0 0 -0 -0 -0 -0 -0 -0 -0 0 0 0 0 0 0 -0 -0 -0 0 0 0
-0 0 0 0 0 0 0 0 0 0 0 0 0 0 0 0 0 0 0 0 0 0 0 0 0 0 0 0 0 0 0 0 -0 0 -0 -0 -0 0 -0 0 0 -0 -0 -0 0 0 0 -0 -0 -0 -0 0 0 0
0 0 0 0 0 0 0 0 0 0 0 0 0 0 0 0 0 0 0 0 0 0 0 0 0 -0 0 -0 0 0 0 -0 -0 -0 -0 -0 -0 0 0 -0 -0 -0 -0 0 0 -0 0 0 -0 -0 -0 0 0 0
0 0 0 0 0 0 0 0 0 0 0 0 0 0 0 0 0 0 0 0 0 0 0 0 0 -0 -0 0 0 0 0 -0 -0 -0 -0 0 -0 -0 -0 -0 -0 -0 -0 0 0 0 0 0 -0 -0 0 0 0 0
0 0 0 0 0 0 0 0 0 0 0 0 0 0 0 0 0 0 0 0 0 0 0 0 0 0 -0 -0 -0 0 0 0 -0 -0 0 -0 -0 -0 0 -0 -0 -0 -0 -0 0 -0 -0 -0 0 0 -0 0 0 -0
0 -0 0 0 0 0 0 0 -0 0 0 0 0 0 0 0 0 0 0 0 0 0 0 0 0 0 -0 -0 -0 -0 0 0 0 0 -0 -0 0 0 -0 -0 -0 -0 -0 -0 0 -0 -0 0 -0 0 -0 0 0 -0
0 0 0 0 -0 -0 0 0 -0 0 0 0 0 0 0 0 0 0 0 0 0 0 0 0 -0 0 0 -0 -0 0 0 0 0 0 0 -0 -0 0 0 -0 -0 -0 -0 -0 -0 -0 -0 -0 -0 0 -0 -0 0 -0
0 0 0 0 0 0 0 0 0 0 0 0 0 0 0 0 0 0 0 0 0 0 0 0 -0 -0 -0 0 0 0 0 0 0 0 -0 -0 -0 -0 0 0 -0 -0 -0 -0 -0 -0 -0 0 -0 0 -0 -0 -0 0
0 0 0 0 -0 0 0 0 0 0 0 0 0 0 0 0 0 0 0 0 0 0 0 -0 -0 -0 -0 -0 0 0 0 0 0 0 -0 -0 -0 -0 0 0 -0 -0 -0 0 0 0 0 0 0 0 -0 -0 -0 0
0 0 0 0 0 0 0 0 0 0 0 0 0 0 0 0 0 0 0 0 0 0 0 -0 0 -0 -0 0 0 0 0 0 0 0 -0 -0 -0 -0 -0 -0 0 -0 -0 0 0 0 0 0 0 -0 -0 -0 -0 -0
0 0 0 0 0 0 0 0 0 0 0 0 0 0 0 0 0 0 0 0 0 0 0 0 -0 -0 -0 0 0 0 0 0 0 0 0 -0 -0 -0 -0 -0 -0 -0 0 -0 0 0 0 0 0 0 0 0 -0 0
0 0 0 0 0 0 0 0 0 0 0 0 -0 -0 0 0 0 0 0 0 0 0 0 0 0 -0 0 0 -0 0 0 0 0 0 0 -0 -0 -0 -0 -0 -0 0 -0 0 0 0 0 0 0 0 0 0 0 0
0 0 0 0 0 0 0 0 0 0 0 0 0 0 0 0 0 0 0 0 0 0 0 0 0 0 0 0 0 0 0 0 0 0 0 0 0 0 -0 -0 -0 -0 -0 -0 -0 0 -0 -0 -0 0 0 -0 -0 -0
0 0 0 0 0 0 0 0 0 0 0 0 0 0 0 0 0 0 0 0 0 0 0 -0 0 -0 0 -0 0 0 -0 -0 0 0 0 0 0 0 0 0 -0 -0 -0 -0 -0 -0 -0 0 -0 0 0 0 -0 -0
0 0 0 0 0 0 0 0 0 0 0 0 0 0 0 0 0 0 0 0 -0 -0 -0 -0 -0 -0 0 0 0 0 -0 -0 0 0 0 0 0 0 0 0 0 0 -0 -0 -0 -0 0 0 0 0 0 0 0 0
0 0 0 0 0 0 0 0 -0 0 0 0 0 0 0 0 0 0 -0 -0 -0 0 0 0 0 0 0 0 0 0 0 -0 0 0 0 0 0 0 0 0 0 0 0 0 0 0 0 0 0 0 0 0 0 0
0 0 0 0 0 -0 -0 -0 -0 0 0 0 0 0 0 0 0 -0 -0 0 0 0 0 0 0 0 0 0 0 0 0 0 0 0 0 0 0 0 0 0 0 0 0 0 0 0 0 0 -0 -0 -0 0 0 0
0 0 0 -0 -0 0 -0 -0 0 0 0 -0 -0 0 0 0 -0 -0 0 0 0 0 0 0 0 0 0 0 0 0 0 0 0 0 0 0 0 0 0 0 0 0 0 0 0 0 0 0 0 -0 -0 -0 -0 -0
0 0 -0 0 0 0 0 0 0 0 -0 0 -0 -0 -0 -0 -0 0 0 0 0 0 0 0 0 0 0 0 0 0 0 0 0 0 0 0 0 0 0 0 0 0 0 0 0 0 0 0 0 0 0 -0 0 -0
0 0 -0 -0 0 -0 0 0 -0 -0 -0 -0 -0 -0 -0 0 0 0 0 0 0 0 0 0 0 0 0 0 0 0 0 0 -0 0 0 0 0 0 0 0 0 -0 0 0 0 0 0 0 0 0 0 0 0 0
0 0 0 0 0 0 -0 -0 0 0 0 0 0 0 0 0 0 0 0 0 0 0 0 0 0 0 0 0 0 0 0 0 -0 -0 -0 0 0 0 0 0 0 0 0 0 0 0 0 0 0 0 0 0 0 0
0 0 0 0 -0 -0 0 0 0 0 0 0 0 0 0 0 0 0 0 0 0 0 0 0 0 0 0 0 0 0 0 0 0 0 0 0 0 0 0 0 0 0 0 0 0 0 0 0 0 0 0 0 0 0
0 0 0 0 0 0 0 0 0 0 0 0 0 0 0 0 0 0 0 0 0 0 0 0 0 0 0 0 0 0 0 0 0 0 0 0 0 0 0 0 0 0 0 0 0 0 0 0 0 0 0 0 0 0
0 0 0 0 0 0 0 0 0 0 0 0 0 0 0 0 0 0 0 0 0 0 0 0 0 0 0 0 0 0 0 0 0 0 0 0 0 0 0 0 0 0 0 0 0 0 0 0 0 0 0 0 0 0
0 0 0 0 0 0 0 0 0 0 0 0 0 0 0 0 0 0 0 0 0 0 0 0 0 0 0 0 0 0 0 0 0 0 0 0 0 0 0 0 0 0 0 0 0 0 0 0 0 0 0 0 0 0
Wind_Speed_500mb
34 35 38 39 39 37 34 35 34 33 28 25 23 22 22 22 14 9 4 8 7 11 35 21 14 18 15 10 5 9 16 4 7 7 7 4 6 4 9 4 10 5 10 11 15 9 12 7 3 11 11 24 29 33
32 35 36 35 34 37 36 33 35 33 30 25 22 23 19 19 15 15 8 6 9 13 25 36 40 39 35 27 16 7 11 7 3 5 4 9 8 8 13 6 6 6 10 5 6 4 7 7 8 12 18 25 31 40
31 29 29 30 34 36 35 32 33 32 31 25 21 22 23 19 20 16 16 13 8 13 32 13 3 11 11 20 23 13 9 11 5 2 8 6 11 7 7 6 13 4 11 9 11 7 4 7 7 8 25 31 40 45
23 23 26 26 32 34 33 29 27 31 31 26 23 19 20 17 21 17 16 19 12 8 7 3 9 9 16 17 24 28 20 12 6 7 5 7 9 8 10 11 17 21 22 20 22 5 17 10 19 28 38 39 42 50
23 22 21 24 29 30 28 27 26 26 29 25 26 21 22 28 22 15 19 19 17 9 8 24 30 2 8 16 12 18 28 20 8 4 6 7 12 10 14 17 19 9 10 8 9 13 15 28 37 42 44 50 55 56
22 21 22 24 27 25 25 28 24 22 24 20 18 22 22 27 23 17 7 9 15 20 7 7 12 11 10 9 12 17 28 21 11 8 13 11 7 7 7 10 3 10 4 5 16 24 28 36 33 41 51 55 51 54
19 22 25 23 23 21 23 20 13 16 23 23 22 20 20 26 27 13 2 10 10 8 5 9 7 9 10 11 15 12 22 14 15 10 10 14 17 8 6 15 10 12 16 18 20 24 36 37 47 49 48 48 51 53
23 23 23 22 19 17 17 12 13 18 23 24 16 13 26 26 18 15 18 15 8 8 4 5 8 6 7 3 5 19 16 20 16 9 4 14 11 12 7 8 6 9 20 21 22 32 37 42 41 43 44 48 53 56
27 24 19 19 17 14 11 7 10 17 22 19 17 27 29 19 7 7 8 9 16 8 5 5 5 4 2 4 4 6 4 4 3 5 6 6 7 9 7 13 17 20 21 28 33 33 32 34 39 40 44 49 55 60
24 23 20 18 16 12 8 9 15 19 26 22 38 12 10 10 11 17 9 8 7 8 9 9 13 7 10 4 1 6 5 6 5 7 9 9 8 3 9 11 13 17 23 25 30 31 31 36 40 43 48 50 54 59
24 21 20 16 13 12 9 10 15 17 37 31 11 7 12 23 14 6 6 6 11 8 12 12 12 10 3 6 1 7 4 6 5 5 4 6 4 6 6 8 15 16 19 23 25 25 26 30 38 45 49 52 55 59
21 19 18 13 14 12 12 15 20 24 23 11 11 20 19 7 5 7 6 7 9 6 13 10 6 7 4 5 6 10 6 7 5 11 5 4 6 9 6 11 13 18 22 24 26 25 26 30 35 41 46 52 56 56
22 22 18 17 17 13 16 15 23 29 13 15 5 7 8 8 8 10 13 9 7 11 10 13 6 5 7 12 13 7 7 4 15 5 5 7 14 5 10 13 17 19 20 22 23 24 27 31 35 41 48 51 53 52
20 20 18 15 16 18 22 20 25 30 19 7 8 8 9 10 11 12 10 7 13 13 12 12 9 8 11 10 7 7 6 4 6 7 4 12 11 9 9 14 17 19 20 21 24 26 30 34 38 41 46 50 51 54
17 16 14 13 17 18 24 25 25 39 16 8 7 8 13 19 16 10 7 8 16 14 10 7 4 6 7 7 3 7 7 5 3 5 9 17 12 10 12 15 16 17 19 21 24 28 32 34 39 43 46 48 48 52
13 14 13 13 13 13 25 27 31 25 8 6 9 9 18 16 21 19 17 9 14 15 8 6 4 5 7 5 9 9 3 1 5 9 21 17 14 13 12 13 15 15 16 19 23 26 30 35 40 43 44 49 50 52
16 17 10 10 15 14 27 43 28 13 12 8 11 24 24 17 2 5 7 15 14 11 3 4 5 8 5 6 6 5 1 4 12 19 19 17 13 12 11 13 14 15 15 17 20 25 29 32 36 43 50 51 50 51
24 16 12 16 13 26 46 29 14 13 12 19 15 18 22 19 16 11 9 5 9 11 12 6 8 4 6 5 2 4 5 12 15 17 19 16 13 12 12 13 14 15 16 17 18 22 28 33 39 44 45 48 48 54
20 24 17 16 14 33 12 17 12 8 20 14 28 24 16 17 17 15 10 9 8 14 12 5 7 6 6 7 9 4 7 17 19 18 18 15 13 12 10 11 14 15 15 18 18 23 25 30 34 37 41 46 49 53
17 21 15 16 17 21 8 8 15 7 9 12 19 22 25 23 21 22 19 14 20 12 7 7 8 12 17 11 10 11 0 14 20 19 18 14 10 12 9 8 9 10 12 13 19 22 23 25 32 35 39 41 48 49
29 21 21 19 29 23 6 7 8 8 7 8 8 13 14 16 23 23 20 16 16 12 9 17 26 22 17 9 8 1 9 17 15 11 16 17 12 11 11 9 9 10 12 14 17 20 25 27 28 33 36 39 38 46
23 30 30 29 9 11 8 11 4 5 7 5 4 8 7 8 16 21 14 18 12 32 31 29 27 23 23 22 16 10 13 19 14 13 13 16 14 12 11 10 10 12 12 14 15 19 21 23 27 28 34 35 37 38
29 32 11 14 8 8 3 9 8 6 5 4 6 5 6 8 11 8 8 14 26 31 31 29 27 27 21 17 22 19 21 23 19 17 17 15 13 12 12 11 11 11 12 12 13 14 18 23 26 27 27 31 34 37
24 20 9 12 9 7 8 8 6 4 3 4 4 6 8 12 14 10 7 17 18 13 12 25 22 24 26 23 25 23 27 28 23 20 18 17 16 14 12 12 12 11 10 9 10 13 16 19 23 25 29 27 31 33
11 9 9 7 10 10 11 10 8 6 6 9 7 9 5 9 6 7 7 9 1 6 11 18 22 27 31 28 25 25 30 29 26 24 20 17 17 16 15 14 13 10 8 5 7 9 12 15 18 21 24 29 26 31
7 11 12 17 12 10 12 10 10 12 8 11 10 7 6 5 7 7 4 4 4 2 2 9 17 25 30 30 29 31 30 27 26 25 20 17 16 15 16 16 14 9 7 6 5 7 10 12 16 18 18 22 28 26
7 10 13 13 10 10 7 7 6 5 6 7 7 7 6 6 8 5 9 12 10 10 6 3 13 23 31 31 30 28 28 26 25 25 21 17 14 13 12 12 14 12 7 6 6 7 8 11 14 16 17 18 21 23
8 14 11 20 14 17 4 5 7 9 10 10 6 10 6 4 4 6 7 9 3 7 1 12 16 17 23 31 33 32 30 29 31 30 24 19 16 15 15 13 19 15 6 5 6 5 6 7 9 12 15 17 19 21
9 11 13 12 7 9 13 10 7 8 6 8 6 1 4 7 4 3 2 6 7 5 10 23 21 14 28 29 30 30 31 33 35 33 25 21 19 15 14 13 13 11 6 2 2 4 6 6 10 9 11 15 16 17
8 17 8 14 6 10 10 15 8 2 4 7 10 7 6 5 3 4 4 4 3 17 14 24 24 28 31 33 31 29 27 25 24 23 21 21 21 21 18 14 12 8 7 6 4 8 16 16 16 16 14 14 18 17
13 19 9 12 8 9 6 8 8 5 4 6 6 7 8 6 2 7 8 3 10 17 14 23 25 27 30 31 30 34 30 25 23 23 23 23 24 22 19 15 10 8 7 7 6 6 6 8 9 11 14 17 21 22
13 14 9 8 5 4 10 6 5 4 4 4 4 8 9 6 3 4 9 6 18 18 21 23 25 24 25 23 25 27 33 29 30 29 28 25 23 21 17 12 10 9 9 9 9 8 9 8 10 12 12 16 19 21
9 12 11 8 7 6 9 9 7 7 5 5 4 6 5 4 5 2 5 7 13 20 32 35 32 33 34 32 35 43 41 41 38 35 30 21 22 23 16 13 12 12 11 10 8 4 4 6 8 9 12 16 17 20
Wind_Direction_500mb
285 284 288 295 300 299 276 257 251 249 249 245 249 244 253 254 251 213 244 240 246 261 292 280 267 267 259 249 274 344 291 244 249 243 273 307 299 272 280 221 145 231 208 206 230 243 253 83 253 311 339 314 321 316
281 286 289 291 298 297 294 268 251 246 241 248 238 232 247 253 235 224 240 254 238 252 277 289 271 257 244 246 264 197 307 315 290 292 279 301 319 323 323 304 198 235 244 328 242 263 222 312 306 338 321 305 317 315
287 287 290 292 302 297 293 284 254 241 237 238 229 244 254 233 232 220 224 246 285 287 308 247 221 213 230 228 236 224 223 232 251 343 333 280 274 287 293 301 273 306 296 260 286 234 347 236 269 309 320 323 320 314
297 295 300 299 298 298 293 284 271 232 231 232 224 229 227 230 230 226 240 263 268 281 286 328 273 253 229 239 233 227 237 220 248 299 266 269 271 316 294 288 285 286 275 282 272 229 298 53 346 323 323 320 320 316
307 303 300 301 304 303 298 287 274 234 224 220 213 222 231 225 220 221 246 262 256 262 287 302 308 211 232 237 234 226 216 221 227 261 239 247 287 308 294 276 276 324 350 313 318 9 334 317 324 334 333 325 319 315
317 312 300 298 304 299 299 301 268 222 211 200 204 212 229 210 202 212 261 270 242 223 288 293 347 288 186 222 224 210 213 210 214 242 253 248 279 300 299 290 47 54 358 301 310 322 319 313 333 322 322 318 318 315
300 307 299 298 298 294 298 297 237 210 191 189 204 212 194 198 198 183 199 169 190 221 243 275 282 180 214 239 171 171 182 198 209 237 257 284 286 248 265 270 34 358 353 335 318 326 324 328 318 320 319 322 318 315
289 293 295 299 292 294 305 293 207 193 188 193 199 207 206 183 195 228 250 249 274 184 239 284 280 219 225 221 284 201 187 207 215 254 273 260 283 237 259 37 6 347 335 336 336 325 313 315 318 324 326 322 319 322
292 294 293 294 283 282 301 268 212 190 183 184 197 187 158 170 194 232 212 192 193 213 263 212 276 306 266 207 203 284 203 235 202 228 233 281 240 224 306 327 1 360 345 326 324 324 328 331 335 326 325 328 327 326
293 290 281 282 272 268 256 220 207 189 186 174 170 142 157 173 176 144 138 155 206 234 232 248 244 264 312 249 26 270 276 210 233 205 181 227 248 57 37 24 359 343 337 339 335 336 339 333 331 328 330 330 329 329
286 288 270 268 266 248 230 197 191 169 174 164 165 139 141 141 151 185 173 220 188 220 212 238 236 253 282 274 341 242 224 242 249 173 214 250 181 107 44 7 349 345 343 340 335 339 325 328 329 329 331 333 335 335
280 276 275 261 255 237 214 194 182 189 181 164 160 131 139 168 187 229 194 177 223 242 187 219 171 195 242 226 247 244 252 214 239 169 233 234 88 92 19 9 356 348 342 340 343 338 338 335 334 335 338 340 340 339
272 271 277 239 241 227 204 201 197 203 191 156 154 135 153 166 211 228 192 190 199 203 183 170 157 193 215 225 251 244 251 256 147 231 218 76 103 73 28 8 355 356 354 350 353 351 347 344 347 347 345 345 344 346
270 261 267 247 217 213 205 204 198 204 167 158 176 169 218 180 234 211 252 108 120 135 148 173 139 200 221 213 252 263 268 239 254 213 84 109 123 75 39 9 7 7 7 6 4 359 356 355 354 353 352 352 352 354
267 261 268 253 214 227 201 196 211 194 181 212 204 228 214 242 268 222 213 130 116 131 153 124 213 221 244 243 321 307 249 245 256 27 111 114 98 74 34 22 20 20 18 19 11 6 3 3 3 2 1 1 1 360
253 257 279 216 205 197 196 194 208 183 191 210 229 264 231 248 235 201 195 167 150 138 115 98 219 222 231 247 203 235 268 177 44 89 102 116 94 67 47 39 36 33 28 23 17 14 13 16 13 10 10 10 8 6
221 235 254 191 208 241 195 183 177 191 200 217 240 239 258 278 248 166 215 168 168 166 132 164 236 235 189 241 220 218 275 98 117 99 94 99 92 81 67 56 46 42 36 31 27 25 23 22 19 17 16 13 13 15
226 222 218 201 225 197 174 186 176 203 217 227 240 222 215 249 270 263 256 144 191 167 163 199 278 254 250 250 233 243 162 110 97 112 118 113 99 88 85 72 57 54 52 44 40 32 27 25 23 19 16 13 14 13
216 215 202 208 217 185 164 174 200 222 221 233 242 257 250 244 242 242 239 194 195 161 142 205 230 247 248 250 218 275 141 148 135 132 129 122 111 105 97 82 70 61 58 51 48 37 30 24 21 18 18 17 17 14
218 194 196 196 211 192 187 192 184 220 221 226 241 242 241 247 258 242 237 200 166 152 166 208 233 239 271 293 214 248 128 167 145 154 148 140 130 122 111 96 86 68 69 65 47 44 32 28 22 18 17 17 18 18
200 199 191 194 193 212 196 171 198 225 253 242 285 257 259 259 247 241 238 211 182 199 207 221 240 251 251 237 186 87 190 173 167 180 155 147 151 136 127 113 97 86 74 58 52 43 33 26 23 18 20 19 17 22
190 196 184 191 181 198 218 195 231 200 215 243 225 224 274 262 254 257 224 207 232 240 244 245 239 237 227 219 213 219 194 172 151 124 128 138 150 148 137 129 118 105 87 66 50 40 32 23 24 21 20 21 19 16
185 183 164 168 189 177 151 177 201 208 227 228 185 218 216 225 223 192 229 235 249 248 241 230 230 229 225 216 211 191 184 179 172 162 159 153 141 138 136 130 126 118 100 74 58 46 33 28 22 26 21 20 20 21
174 169 182 171 173 158 159 188 200 219 220 234 240 249 211 208 184 209 245 252 255 242 243 200 201 204 207 203 200 193 183 181 176 167 166 157 148 140 138 134 134 129 107 82 57 40 33 23 23 18 21 23 22 22
149 185 167 164 190 171 197 173 186 192 240 200 224 238 219 178 209 222 229 246 308 247 230 204 200 202 196 190 189 187 177 177 173 167 166 163 155 147 141 137 135 130 108 90 55 40 27 23 19 18 14 18 21 20
216 177 192 191 178 201 200 172 203 214 214 192 222 244 211 217 235 236 159 106 21 13 29 202 204 186 187 186 180 174 175 175 168 163 163 161 162 163 160 158 151 127 103 93 70 38 22 17 12 16 15 13 17 22
204 193 197 209 204 200 218 232 166 187 206 234 191 199 196 228 225 90 108 51 39 353 296 225 194 182 178 179 172 168 167 164 166 160 155 148 145 147 156 169 159 155 133 96 64 42 21 9 6 9 13 14 14 20
252 195 192 188 198 208 209 194 208 217 211 223 199 202 219 252 69 45 50 12 22 21 260 162 158 156 170 165 160 158 154 152 147 147 144 134 131 135 139 137 178 182 167 172 105 49 37 14 9 8 12 11 10 9
224 208 183 175 165 212 220 220 236 223 209 183 176 331 64 70 59 3 226 354 320 188 153 161 157 149 150 147 152 158 160 158 159 158 155 149 145 142 135 129 122 122 119 46 27 8 13 21 33 39 24 11 7 6
225 190 171 172 200 224 230 211 235 226 66 103 118 126 119 112 341 321 306 301 258 183 170 173 169 164 161 157 155 157 160 164 167 170 167 162 161 154 148 139 130 123 113 100 65 352 15 29 18 22 17 9 8 14
178 183 186 201 235 227 210 154 138 108 122 124 139 148 153 155 111 32 5 298 183 152 172 168 167 165 164 167 167 162 157 160 159 153 153 149 150 151 146 141 133 123 109 94 73 53 41 21 22 14 9 12 5 8
174 183 191 198 226 190 139 115 113 115 124 119 118 140 144 149 119 17 36 87 163 136 138 164 159 159 162 165 163 164 160 150 150 144 142 143 147 147 142 142 135 117 104 93 85 71 51 51 37 27 14 8 4 1
202 183 191 164 157 149 165 152 159 139 118 121 123 142 134 120 113 156 76 133 146 160 167 142 142 149 142 142 149 159 162 162 159 159 160 163 162 151 133 127 118 114 115 114 96 54 355 353 0 5 10 11 3 356
Wind_Speed_850mb
34 35 38 39 39 37 34 35 34 33 28 25 23 22 22 22 14 9 4 8 7 11 35 21 14 18 15 10 5 9 16 4 7 7 7 4 6 4 9 4 10 5 10 11 15 9 12 7 3 11 11 24 29 33
32 35 36 35 34 37 36 33 35 33 30 25 22 23 19 19 15 15 8 6 9 13 25 36 40 39 35 27 16 7 11 7 3 5 4 9 8 8 13 6 6 6 10 5 6 4 7 7 8 12 18 25 31 40
31 29 29 30 34 36 35 32 33 32 31 25 21 22 23 19 20 16 16 13 8 13 32 13 3 11 11 20 23 13 9 11 5 2 8 6 11 7 7 6 13 4 11 9 11 7 4 7 7 8 25 31 40 45
23 23 26 26 32 34 33 29 27 31 31 26 23 19 20 17 21 17 16 19 12 8 7 3 9 9 16 17 24 28 20 12 6 7 5 7 9 8 10 11 17 21 22 20 22 5 17 10 19 28 38 39 42 50
23 22 21 24 29 30 28 27 26 26 29 25 26 21 22 28 22 15 19 19 17 9 8 24 30 2 8 16 12 18 28 20 8 4 6 7 12 10 14 17 19 9 10 8 9 13 15 28 37 42 44 50 55 56
22 21 22 24 27 25 25 28 24 22 24 20 18 22 22 27 23 17 7 9 15 20 7 7 12 11 10 9 12 17 28 21 11 8 13 11 7 7 7 10 3 10 4 5 16 24 28 36 33 41 51 55 51 54
19 22 25 23 23 21 23 20 13 16 23 23 22 20 20 26 27 13 2 10 10 8 5 9 7 9 10 11 15 12 22 14 15 10 10 14 17 8 6 15 10 12 16 18 20 24 36 37 47 49 48 48 51 53
23 23 23 22 19 17 17 12 13 18 23 24 16 13 26 26 18 15 18 15 8 8 4 5 8 6 7 3 5 19 16 20 16 9 4 14 11 12 7 8 6 9 20 21 22 32 37 42 41 43 44 48 53 56
27 24 19 19 17 14 11 7 10 17 22 19 17 27 29 19 7 7 8 9 16 8 5 5 5 4 2 4 4 6 4 4 3 5 6 6 7 9 7 13 17 20 21 28 33 33 32 34 39 40 44 49 55 60
24 23 20 18 16 12 8 9 15 19 26 22 38 12 10 10 11 17 9 8 7 8 9 9 13 7 10 4 1 6 5 6 5 7 9 9 8 3 9 11 13 17 23 25 30 31 31 36 40 43 48 50 54 59
24 21 20 16 13 12 9 10 15 17 37 31 11 7 12 23 14 6 6 6 11 8 12 12 12 10 3 6 1 7 4 6 5 5 4 6 4 6 6 8 15 16 19 23 25 25 26 30 38 45 49 52 55 59
21 19 18 13 14 12 12 15 20 24 23 11 11 20 19 7 5 7 6 7 9 6 13 10 6 7 4 5 6 10 6 7 5 11 5 4 6 9 6 11 13 18 22 24 26 25 26 30 35 41 46 52 56 56
22 22 18 17 17 13 16 15 23 29 13 15 5 7 8 8 8 10 13 9 7 11 10 13 6 5 7 12 13 7 7 4 15 5 5 7 14 5 10 13 17 19 20 22 23 24 27 31 35 41 48 51 53 52
20 20 18 15 16 18 22 20 25 30 19 7 8 8 9 10 11 12 10 7 13 13 12 12 9 8 11 10 7 7 6 4 6 7 4 12 11 9 9 14 17 19 20 21 24 26 30 34 38 41 46 50 51 54
17 16 14 13 17 18 24 25 25 39 16 8 7 8 13 19 16 10 7 8 16 14 10 7 4 6 7 7 3 7 7 5 3 5 9 17 12 10 12 15 16 17 19 21 24 28 32 34 39 43 46 48 48 52
13 14 13 13 13 13 25 27 31 25 8 6 9 9 18 16 21 19 17 9 14 15 8 6 4 5 7 5 9 9 3 1 5 9 21 17 14 13 12 13 15 15 16 19 23 26 30 35 40 43 44 49 50 52
16 17 10 10 15 14 27 43 28 13 12 8 11 24 24 17 2 5 7 15 14 11 3 4 5 8 5 6 6 5 1 4 12 19 19 17 13 12 11 13 14 15 15 17 20 25 29 32 36 43 50 51 50 51
24 16 12 16 13 26 46 29 14 13 12 19 15 18 22 19 16 11 9 5 9 11 12 6 8 4 6 5 2 4 5 12 15 17 19 16 13 12 12 13 14 15 16 17 18 22 28 33 39 44 45 48 48 54
20 24 17 16 14 33 12 17 12 8 20 14 28 24 16 17 17 15 10 9 8 14 12 5 7 6 6 7 9 4 7 17 19 18 18 15 13 12 10 11 14 15 15 18 18 23 25 30 34 37 41 46 49 53
17 21 15 16 17 21 8 8 15 7 9 12 19 22 25 23 21 22 19 14 20 12 7 7 8 12 17 11 10 11 0 14 20 19 18 14 10 12 9 8 9 10 12 13 19 22 23 25 32 35 39 41 48 49
29 21 21 19 29 23 6 7 8 8 7 8 8 13 14 16 23 23 20 16 16 12 9 17 26 22 17 9 8 1 9 17 15 11 16 17 12 11 11 9 9 10 12 14 17 20 25 27 28 33 36 39 38 46
23 30 30 29 9 11 8 11 4 5 7 5 4 8 7 8 16 21 14 18 12 32 31 29 27 23 23 22 16 10 13 19 14 13 13 16 14 12 11 10 10 12 12 14 15 19 21 23 27 28 34 35 37 38
29 32 11 14 8 8 3 9 8 6 5 4 6 5 6 8 11 8 8 14 26 31 31 29 27 27 21 17 22 19 21 23 19 17 17 15 13 12 12 11 11 11 12 12 13 14 18 23 26 27 27 31 34 37
24 20 9 12 9 7 8 8 6 4 3 4 4 6 8 12 14 10 7 17 18 13 12 25 22 24 26 23 25 23 27 28 23 20 18 17 16 14 12 12 12 11 10 9 10 13 16 19 23 25 29 27 31 33
11 9 9 7 10 10 11 10 8 6 6 9 7 9 5 9 6 7 7 9 1 6 11 18 22 27 31 28 25 25 30 29 26 24 20 17 17 16 15 14 13 10 8 5 7 9 12 15 18 21 24 29 26 31
7 11 12 17 12 10 12 10 10 12 8 11 10 7 6 5 7 7 4 4 4 2 2 9 17 25 30 30 29 31 30 27 26 25 20 17 16 15 16 16 14 9 7 6 5 7 10 12 16 18 18 22 28 26
7 10 13 13 10 10 7 7 6 5 6 7 7 7 6 6 8 5 9 12 10 10 6 3 13 23 31 31 30 28 28 26 25 25 21 17 14 13 12 12 14 12 7 6 6 7 8 11 14 16 17 18 21 23
8 14 11 20 14 17 4 5 7 9 10 10 6 10 6 4 4 6 7 9 3 7 1 12 16 17 23 31 33 32 30 29 31 30 24 19 16 15 15 13 19 15 6 5 6 5 6 7 9 12 15 17 19 21
9 11 13 12 7 9 13 10 7 8 6 8 6 1 4 7 4 3 2 6 7 5 10 23 21 14 28 29 30 30 31 33 35 33 25 21 19 15 14 13 13 11 6 2 2 4 6 6 10 9 11 15 16 17
8 17 8 14 6 10 10 15 8 2 4 7 10 7 6 5 3 4 4 4 3 17 14 24 24 28 31 33 31 29 27 25 24 23 21 21 21 21 18 14 12 8 7 6 4 8 16 16 16 16 14 14 18 17
13 19 9 12 8 9 6 8 8 5 4 6 6 7 8 6 2 7 8 3 10 17 14 23 25 27 30 31 30 34 30 25 23 23 23 23 24 22 19 15 10 8 7 7 6 6 6 8 9 11 14 17 21 22
13 14 9 8 5 4 10 6 5 4 4 4 4 8 9 6 3 4 9 6 18 18 21 23 25 24 25 23 25 27 33 29 30 29 28 25 23 21 17 12 10 9 9 9 9 8 9 8 10 12 12 16 19 21
9 12 11 8 7 6 9 9 7 7 5 5 4 6 5 4 5 2 5 7 13 20 32 35 32 33 34 32 35 43 41 41 38 35 30 21 22 23 16 13 12 12 11 10 8 4 4 6 8 9 12 16 17 20
Wind_Direction_850mb
285 284 288 295 300 299 276 257 251 249 249 245 249 244 253 254 251 213 244 240 246 261 292 280 267 267 259 249 274 344 291 244 249 243 273 307 299 272 280 221 145 231 208 206 230 243 253 83 253 311 339 314 321 316
281 286 289 291 298 297 294 268 251 246 241 248 238 232 247 253 235 224 240 254 238 252 277 289 271 257 244 246 264 197 307 315 290 292 279 301 319 323 323 304 198 235 244 328 242 263 222 312 306 338 321 305 317 315
287 287 290 292 302 297 293 284 254 241 237 238 229 244 254 233 232 220 224 246 285 287 308 247 221 213 230 228 236 224 223 232 251 343 333 280 274 287 293 301 273 306 296 260 286 234 347 236 269 309 320 323 320 314
297 295 300 299 298 298 293 284 271 232 231 232 224 229 227 230 230 226 240 263 268 281 286 328 273 253 229 239 233 227 237 220 248 299 266 269 271 316 294 288 285 286 275 282 272 229 298 53 346 323 323 320 320 316
307 303 300 301 304 303 298 287 274 234 224 220 213 222 231 225 220 221 246 262 256 262 287 302 308 211 232 237 234 226 216 221 227 261 239 247 287 308 294 276 276 324 350 313 318 9 334 317 324 334 333 325 319 315
317 312 300 298 304 299 299 301 268 222 211 200 204 212 229 210 202 212 261 270 242 223 288 293 347 288 186 222 224 210 213 210 214 242 253 248 279 300 299 290 47 54 358 301 310 322 319 313 333 322 322 318 318 315
300 307 299 298 298 294 298 297 237 210 191 189 204 212 194 198 198 183 199 169 190 221 243 275 282 180 214 239 171 171 182 198 209 237 257 284 286 248 265 270 34 358 353 335 318 326 324 328 318 320 319 322 318 315
289 293 295 299 292 294 305 293 207 193 188 193 199 207 206 183 195 228 250 249 274 184 239 284 280 219 225 221 284 201 187 207 215 254 273 260 283 237 259 37 6 347 335 336 336 325 313 315 318 324 326 322 319 322
292 294 293 294 283 282 301 268 212 190 183 184 197 187 158 170 194 232 212 192 193 213 263 212 276 306 266 207 203 284 203 235 202 228 233 281 240 224 306 327 1 360 345 326 324 324 328 331 335 326 325 328 327 326
293 290 281 282 272 268 256 220 207 189 186 174 170 142 157 173 176 144 138 155 206 234 232 248 244 264 312 249 26 270 276 210 233 205 181 227 248 57 37 24 359 343 337 339 335 336 339 333 331 328 330 330 329 329
286 288 270 268 266 248 230 197 191 169 174 164 165 139 141 141 151 185 173 220 188 220 212 238 236 253 282 274 341 242 224 242 249 173 214 250 181 107 44 7 349 345 343 340 335 339 325 328 329 329 331 333 335 335
280 276 275 261 255 237 214 194 182 189 181 164 160 131 139 168 187 229 194 177 223 242 187 219 171 195 242 226 247 244 252 214 239 169 233 234 88 92 19 9 356 348 342 340 343 338 338 335 334 335 338 340 340 339
272 271 277 239 241 227 204 201 197 203 191 156 154 135 153 166 211 228 192 190 199 203 183 170 157 193 215 225 251 244 251 256 147 231 218 76 103 73 28 8 355 356 354 350 353 351 347 344 347 347 345 345 344 346
270 261 267 247 217 213 205 204 198 204 167 158 176 169 218 180 234 211 252 108 120 135 148 173 139 200 221 213 252 263 268 239 254 213 84 109 123 75 39 9 7 7 7 6 4 359 356 355 354 353 352 352 352 354
267 261 268 253 214 227 201 196 211 194 181 212 204 228 214 242 268 222 213 130 116 131 153 124 213 221 244 243 321 307 249 245 256 27 111 114 98 74 34 22 20 20 18 19 11 6 3 3 3 2 1 1 1 360
253 257 279 216 205 197 196 194 208 183 191 210 229 264 231 248 235 201 195 167 150 138 115 98 219 222 231 247 203 235 268 177 44 89 102 116 94 67 47 39 36 33 28 23 17 14 13 16 13 10 10 10 8 6
221 235 254 191 208 241 195 183 177 191 200 217 240 239 258 278 248 166 215 168 168 166 132 164 236 235 189 241 220 218 275 98 117 99 94 99 92 81 67 56 46 42 36 31 27 25 23 22 19 17 16 13 13 15
226 222 218 201 225 197 174 186 176 203 217 227 240 222 215 249 270 263 256 144 191 167 163 199 278 254 250 250 233 243 162 110 97 112 118 113 99 88 85 72 57 54 52 44 40 32 27 25 23 19 16 13 14 13
216 215 202 208 217 185 164 174 200 222 221 233 242 257 250 244 242 242 239 194 195 161 142 205 230 247 248 250 218 275 141 148 135 132 129 122 111 105 97 82 70 61 58 51 48 37 30 24 21 18 18 17 17 14
218 194 196 196 211 192 187 192 184 220 221 226 241 242 241 247 258 242 237 200 166 152 166 208 233 239 271 293 214 248 128 167 145 154 148 140 130 122 111 96 86 68 69 65 47 44 32 28 22 18 17 17 18 18
200 199 191 194 193 212 196 171 198 225 253 242 285 257 259 259 247 241 238 211 182 199 207 221 240 251 251 237 186 87 190 173 167 180 155 147 151 136 127 113 97 86 74 58 52 43 33 26 23 18 20 19 17 22
190 196 184 191 181 198 218 195 231 200 215 243 225 224 274 262 254 257 224 207 232 240 244 245 239 237 227 219 213 219 194 172 151 124 128 138 150 148 137 129 118 105 87 66 50 40 32 23 24 21 20 21 19 16
185 183 164 168 189 177 151 177 201 208 227 228 185 218 216 225 223 192 229 235 249 248 241 230 230 229 225 216 211 191 184 179 172 162 159 153 141 138 136 130 126 118 100 74 58 46 33 28 22 26 21 20 20 21
174 169 182 171 173 158 159 188 200 219 220 234 240 249 211 208 184 209 245 252 255 242 243 200 201 204 207 203 200 193 183 181 176 167 166 157 148 140 138 134 134 129 107 82 57 40 33 23 23 18 21 23 22 22
149 185 167 164 190 171 197 173 186 192 240 200 224 238 219 178 209 222 229 246 308 247 230 204 200 202 196 190 189 187 177 177 173 167 166 163 155 147 141 137 135 130 108 90 55 40 27 23 19 18 14 18 21 20
216 177 192 191 178 201 200 172 203 214 214 192 222 244 211 217 235 236 159 106 21 13 29 202 204 186 187 186 180 174 175 175 168 163 163 161 162 163 160 158 151 127 103 93 70 38 22 17 12 16 15 13 17 22
204 193 197 209 204 200 218 232 166 187 206 234 191 199 196 228 225 90 108 51 39 353 296 225 194 182 178 179 172 168 167 164 166 160 155 148 145 147 156 169 159 155 133 96 64 42 21 9 6 9 13 14 14 20
252 195 192 188 198 208 209 194 208 217 211 223 199 202 219 252 69 45 50 12 22 21 260 162 158 156 170 165 160 158 154 152 147 147 144 134 131 135 139 137 178 182 167 172 105 49 37 14 9 8 12 11 10 9
224 208 183 175 165 212 220 220 236 223 209 183 176 331 64 70 59 3 226 354 320 188 153 161 157 149 150 147 152 158 160 158 159 158 155 149 145 142 135 129 122 122 119 46 27 8 13 21 33 39 24 11 7 6
225 190 171 172 200 224 230 211 235 226 66 103 118 126 119 112 341 321 306 301 258 183 170 173 169 164 161 157 155 157 160 164 167 170 167 162 161 154 148 139 130 123 113 100 65 352 15 29 18 22 17 9 8 14
178 183 186 201 235 227 210 154 138 108 122 124 139 148 153 155 111 32 5 298 183 152 172 168 167 165 164 167 167 162 157 160 159 153 153 149 150 151 146 141 133 123 109 94 73 53 41 21 22 14 9 12 5 8
174 183 191 198 226 190 139 115 113 115 124 119 118 140 144 149 119 17 36 87 163 136 138 164 159 159 162 165 163 164 160 150 150 144 142 143 147 147 142 142 135 117 104 93 85 71 51 51 37 27 14 8 4 1
202 183 191 164 157 149 165 152 159 139 118 121 123 142 134 120 113 156 76 133 146 160 167 142 142 149 142 142 149 159 162 162 159 159 160 163 162 151 133 127 118 114 115 114 96 54 355 353 0 5 10 11 3 356